Vorticity
23 24 25 25 25 23 20 16 12 10 7 4 2 2 2 3 3 3 3 3 4 5 6 8 11 15 19 21 21 18 14 9 6 5 6 8 10 11 11 11 10 10 10 9 9 9 9 8 6 6 7 7 7 6 4 3 3 4 6 6 5 4 4
12 14 16 18 20 23 25 24 22 20 18 15 11 6 4 3 3 3 4 3 3 4 5 5 5 6 8 12 16 19 21 19 16 12 8 6 5 6 8 10 11 12 11 10 9 8 9 11 10 9 9 8 8 8 7 6 4 3 3 4 5 4 4
5 6 6 7 8 11 14 19 20 20 21 22 22 19 15 10 6 5 4 5 4 4 4 5 5 5 5 6 8 11 14 17 19 20 18 14 11 8 6 7 8 11 12 13 12 10 8 8 9 9 10 10 10 10 9 8 7 6 4 4 4 4 5
5 5 5 4 3 4 5 8 11 13 15 17 19 21 22 21 17 12 8 6 6 5 5 5 6 6 6 6 6 7 8 10 13 15 17 18 16 15 13 11 9 9 10 11 12 13 12 11 10 9 10 10 11 11 11 10 10 9 8 6 5 4 5
9 8 8 7 6 5 5 6 8 9 10 11 12 14 16 19 21 21 17 11 8 6 6 6 6 6 7 7 7 6 6 7 9 11 13 15 17 17 17 16 14 13 12 12 11 10 11 11 11 11 10 10 10 10 11 11 12 11 10 9 8 7 6
22 21 19 18 16 13 12 11 11 11 12 12 12 11 11 12 14 18 21 19 15 11 8 7 7 7 7 7 7 7 7 7 7 7 8 10 12 14 16 16 15 15 15 14 14 12 11 10 9 9 9 9 9 8 9 9 10 10 10 10 10 9 7
31 30 29 29 28 26 23 21 19 18 17 16 16 14 13 12 11 11 15 18 19 18 14 10 9 8 7 7 7 7 8 8 8 7 7 7 8 9 12 13 14 14 14 13 13 14 14 13 12 11 10 10 10 9 9 8 7 8 9 9 10 9 8
26 27 28 29 30 30 29 28 27 25 24 22 21 20 18 16 14 12 12 13 16 19 19 16 14 12 10 9 8 7 7 8 8 8 9 9 8 8 9 10 11 13 14 14 13 12 12 12 12 12 12 11 11 11 11 10 9 8 8 10 10 10 10
21 21 23 23 24 25 26 27 28 28 27 27 26 25 23 20 18 16 14 13 13 15 17 18 17 16 15 13 11 10 9 9 9 9 9 8 9 9 9 9 10 10 12 14 14 14 13 12 11 10 9 10 10 10 11 12 12 11 10 9 10 11 11
17 18 19 19 20 22 22 23 24 25 26 26 26 26 26 24 22 19 16 14 14 14 15 17 17 16 17 17 15 14 12 10 9 9 8 8 8 8 8 9 9 10 10 11 13 14 15 16 15 13 11 10 9 9 10 11 11 12 11 9 8 8 9
15 16 17 18 19 20 21 21 21 22 23 23 24 24 25 25 25 22 19 15 13 13 14 16 16 15 14 14 15 14 13 12 11 10 10 9 9 9 9 9 9 9 10 10 10 11 12 14 16 17 17 16 14 12 10 9 9 9 10 11 10 10 9
18 20 21 21 21 21 21 21 20 20 21 21 21 22 23 24 25 25 23 19 15 13 12 12 13 14 13 13 13 14 14 14 14 13 12 11 11 10 11 11 11 10 10 10 10 9 9 10 11 12 15 17 17 17 15 13 11 9 8 8 8 9 9
23 24 25 25 25 24 23 23 22 22 21 21 21 21 22 23 24 26 26 24 20 15 12 11 11 13 13 13 13 13 13 14 14 14 13 13 12 12 11 11 11 11 11 11 11 11 10 10 10 10 10 11 12 15 17 18 18 17 15 13 12 11 10
23 23 22 22 22 23 23 23 23 23 23 22 21 21 21 22 23 25 26 27 25 21 17 15 14 12 12 11 11 11 12 12 12 12 13 13 13 12 11 11 10 10 11 11 11 12 12 12 11 11 10 10 10 10 11 13 15 17 19 19 19 18 17
18 17 17 17 18 20 22 23 24 24 24 23 23 22 22 22 23 23 23 25 27 27 24 21 18 15 13 11 10 9 9 10 11 12 13 13 13 12 11 11 11 10 10 10 10 10 10 10 10 10 10 10 11 11 10 10 10 11 13 14 16 17 17
14 14 15 18 19 20 21 23 24 24 24 24 24 24 23 24 23 22 21 23 24 26 26 25 23 20 17 15 13 12 11 10 11 12 13 13 12 12 12 11 11 11 10 10 10 9 9 9 9 10 11 11 11 11 11 10 9 9 9 10 11 12 13
15 18 21 22 23 22 23 25 25 25 25 25 25 25 26 26 26 23 22 23 22 23 25 25 25 25 23 20 18 16 14 13 12 12 13 13 12 12 12 12 12 12 11 11 11 11 10 11 10 10 10 10 11 11 11 11 11 10 10 10 10 10 10
26 28 28 27 24 24 24 25 24 24 24 24 25 27 27 27 27 26 25 24 23 22 22 22 24 26 27 25 22 20 18 17 16 15 14 14 13 13 13 13 12 12 12 12 12 12 12 12 11 11 11 11 11 11 11 11 11 11 11 11 11 11 10
31 30 27 24 23 22 23 23 23 23 24 23 25 27 26 26 27 27 26 25 24 23 23 23 23 25 27 28 27 26 23 21 20 20 17 15 16 16 15 14 14 13 13 12 11 12 12 12 11 11 11 11 11 11 11 11 11 11 11 11 11 11 11
26 24 24 24 23 23 22 21 22 22 23 24 26 26 25 25 25 24 24 24 25 25 25 25 24 24 26 28 29 31 29 24 22 23 22 20 20 20 19 18 17 17 16 16 14 13 12 12 12 13 13 12 12 12 12 11 11 11 11 11 11 11 11
26 26 26 24 22 21 21 22 24 23 23 25 26 24 22 20 19 20 21 21 22 23 22 22 22 22 24 26 27 30 31 28 24 25 26 24 22 21 21 21 21 20 20 20 19 18 17 16 15 15 14 14 14 14 14 14 14 14 14 13 12 12 12
24 23 21 20 20 21 22 24 24 21 21 23 22 17 15 15 15 16 17 17 16 16 16 17 17 17 18 20 20 22 25 25 24 23 23 23 22 21 20 20 20 19 19 19 20 20 20 19 18 18 17 17 16 16 16 16 16 16 16 15 15 15 14
20 19 19 20 21 21 20 20 19 17 17 19 17 12 11 13 13 14 14 14 14 14 14 15 15 15 15 16 16 17 19 20 21 20 20 20 19 19 18 17 18 18 18 18 18 19 19 20 20 20 20 20 20 19 19 19 19 18 18 18 18 18 18
20 20 20 19 19 17 15 15 16 16 16 15 14 12 11 11 11 12 13 13 14 15 15 15 16 16 15 15 16 16 17 17 18 18 17 17 17 17 17 17 17 17 17 17 17 17 17 17 17 18 18 18 18 19 19 19 18 19 18 18 18 17 17
19 18 17 16 15 15 15 15 15 16 15 15 14 13 13 12 12 12 12 13 14 15 16 16 15 15 15 15 15 15 15 15 16 16 16 16 16 15 15 15 14 14 14 14 14 13 13 13 14 14 13 13 13 13 13 13 13 13 12 12 12 12 12
19 17 16 16 15 15 15 15 15 16 16 15 15 14 14 14 14 15 15 14 14 14 14 15 14 14 14 14 14 13 13 13 13 14 14 14 14 14 15 15 14 14 14 13 13 12 12 11 10 9 8 8 8 7 6 6 6 6 6 6 6 6 6
17 16 16 16 16 16 16 15 16 17 18 18 17 16 15 14 14 14 14 14 13 13 13 14 14 14 15 15 15 15 16 15 15 15 15 15 15 15 14 14 13 12 11 11 9 8 7 6 6 5 5 4 4 4 4 4 4 4 5 5 6 6 7
17 17 17 17 15 15 14 14 14 14 17 18 17 14 14 15 14 13 14 14 15 15 15 15 15 16 16 16 16 16 15 15 14 13 12 11 10 9 8 8 7 6 5 5 4 4 4 4 4 4 4 4 5 5 6 7 7 7 8 9 11 12 13
14 14 14 14 13 13 13 13 13 13 14 17 16 14 14 15 15 14 14 14 14 14 14 14 13 11 11 10 9 8 8 7 6 5 5 4 4 3 3 3 3 3 3 4 4 5 6 6 7 9 9 10 11 12 13 14 14 15 16 16 17 17 17
15 16 15 13 13 14 14 14 14 13 12 14 14 14 13 12 12 11 10 10 9 8 8 7 6 5 5 4 4 3 3 2 2 2 2 2 3 4 5 5 7 8 9 10 11 12 14 15 16 16 17 18 18 19 20 20 20 20 20 19 19 19 19
13 13 12 10 9 9 9 8 8 7 6 5 6 6 6 6 5 5 5 4 4 3 3 3 3 3 2 3 3 4 4 5 6 7 8 9 11 12 13 14 15 16 17 18 19 19 20 20 20 20 20 20 20 20 20 20 21 21 22 23 23 22 22
7 7 7 6 5 4 5 5 5 4 4 3 2 2 3 3 3 2 3 3 3 3 3 4 4 5 6 7 8 9 10 12 13 14 16 16 17 18 19 19 19 19 19 19 18 18 17 17 17 17 17 18 19 20 21 22 23 23 23 24 24 23 23
6 6 6 6 5 5 5 6 6 6 6 6 6 6 6 6 6 6 6 7 7 8 9 10 10 12 13 13 14 16 17 18 18 18 19 19 19 19 19 19 18 17 17 16 16 15 15 15 16 17 18 19 20 20 21 20 20 20 20 21 21 22 22
7 8 9 9 9 9 10 10 11 11 11 11 11 11 11 11 11 11 12 12 12 13 14 15 16 17 18 19 19 19 19 20 20 19 19 18 18 17 16 15 15 14 14 15 15 16 17 18 19 20 21 21 21 20 20 20 20 21 21 21 22 22 23
10 10 11 12 12 12 13 13 13 14 14 14 14 13 14 14 14 15 15 15 16 17 17 18 19 19 20 20 19 18 17 16 15 15 14 14 13 13 13 14 14 15 15 16 17 19 21 22 22 22 21 21 21 21 21 21 21 20 20 20 20 20 20
10 11 12 12 13 13 13 13 14 15 15 15 16 16 17 18 19 20 20 20 21 21 21 20 19 19 18 17 16 15 14 13 12 12 12 12 12 13 13 13 14 15 17 19 21 22 22 21 21 20 20 19 19 18 18 18 18 19 19 19 19 19 19
Height
5391 5391 5392 5392 5392 5394 5395 5397 5399 5400 5402 5404 5406 5408 5411 5413 5415 5417 5420 5421 5422 5423 5425 5428 5431 5433 5436 5438 5440 5443 5444 5447 5449 5451 5453 5455 5456 5458 5461 5463 5464 5468 5478 5482 5482 5485 5486 5487 5490 5491 5494 5497 5499 5500 5501 5504 5507 5510 5512 5514 5516 5518 5519
5377 5377 5377 5378 5378 5378 5380 5382 5384 5385 5386 5388 5390 5393 5396 5398 5400 5402 5405 5407 5409 5411 5413 5415 5419 5421 5423 5426 5428 5430 5432 5434 5436 5438 5441 5443 5444 5447 5449 5451 5452 5456 5463 5468 5470 5473 5474 5475 5477 5479 5481 5484 5486 5487 5489 5492 5495 5497 5500 5503 5505 5507 5509
5363 5363 5363 5364 5364 5365 5366 5367 5369 5370 5371 5372 5375 5378 5380 5382 5385 5387 5390 5393 5395 5398 5400 5403 5406 5409 5411 5414 5416 5418 5420 5422 5424 5426 5428 5430 5432 5435 5437 5438 5440 5444 5449 5455 5458 5460 5462 5463 5465 5466 5468 5470 5472 5474 5476 5479 5482 5485 5488 5491 5493 5496 5498
5348 5348 5348 5349 5349 5350 5351 5353 5354 5355 5356 5358 5360 5362 5365 5367 5369 5371 5374 5377 5380 5383 5386 5390 5394 5397 5399 5401 5403 5405 5408 5410 5412 5414 5416 5418 5420 5422 5425 5427 5429 5432 5436 5441 5444 5447 5448 5450 5452 5453 5455 5457 5459 5461 5463 5466 5469 5472 5475 5478 5481 5485 5487
5331 5331 5331 5332 5333 5335 5336 5337 5339 5340 5342 5343 5345 5348 5351 5352 5353 5355 5358 5362 5365 5369 5372 5376 5380 5383 5386 5389 5391 5393 5396 5398 5400 5402 5404 5406 5408 5410 5413 5415 5417 5419 5423 5427 5431 5434 5435 5437 5439 5441 5442 5444 5446 5448 5450 5453 5456 5459 5462 5465 5469 5473 5475
5314 5313 5313 5315 5316 5318 5320 5321 5323 5324 5326 5328 5330 5333 5336 5338 5339 5341 5343 5346 5350 5354 5358 5362 5365 5369 5373 5376 5378 5380 5383 5385 5387 5390 5392 5395 5397 5399 5401 5403 5405 5408 5411 5414 5418 5420 5422 5425 5427 5428 5430 5431 5432 5435 5438 5440 5443 5446 5449 5452 5456 5459 5462
5297 5296 5297 5298 5300 5301 5303 5304 5306 5307 5310 5312 5314 5317 5320 5322 5325 5327 5329 5332 5336 5339 5343 5347 5352 5355 5359 5362 5364 5367 5370 5372 5375 5377 5380 5383 5386 5388 5390 5392 5394 5397 5400 5402 5405 5407 5409 5411 5413 5415 5417 5418 5419 5422 5425 5427 5429 5433 5437 5439 5442 5446 5449
5282 5282 5282 5283 5284 5285 5287 5288 5289 5291 5293 5295 5297 5301 5304 5307 5310 5313 5315 5319 5322 5325 5328 5333 5338 5341 5344 5347 5350 5353 5357 5359 5362 5365 5368 5371 5374 5377 5379 5381 5384 5386 5389 5391 5393 5395 5396 5399 5401 5402 5403 5405 5407 5410 5413 5415 5417 5422 5426 5427 5429 5434 5437
5270 5270 5269 5269 5270 5271 5272 5273 5274 5275 5277 5279 5281 5284 5287 5291 5295 5299 5302 5305 5309 5312 5315 5319 5323 5326 5329 5333 5336 5340 5343 5346 5349 5352 5356 5359 5362 5365 5367 5370 5372 5375 5377 5379 5382 5383 5385 5387 5389 5389 5390 5393 5395 5398 5402 5404 5405 5411 5415 5415 5417 5423 5426
5259 5258 5257 5257 5257 5258 5259 5260 5260 5261 5263 5264 5266 5268 5272 5276 5281 5285 5288 5292 5296 5299 5302 5305 5309 5312 5315 5319 5323 5327 5330 5333 5336 5340 5344 5347 5350 5352 5355 5358 5361 5363 5365 5368 5370 5371 5373 5375 5376 5377 5379 5382 5384 5387 5391 5392 5393 5398 5402 5403 5405 5411 5414
5248 5247 5246 5245 5245 5246 5246 5247 5247 5249 5250 5252 5253 5254 5257 5262 5267 5271 5275 5279 5283 5286 5289 5292 5295 5299 5302 5305 5309 5313 5316 5320 5324 5328 5332 5335 5338 5340 5343 5346 5349 5352 5354 5356 5358 5359 5361 5362 5364 5365 5367 5370 5373 5375 5378 5380 5381 5385 5389 5389 5392 5399 5402
5237 5236 5235 5234 5234 5234 5234 5234 5235 5236 5237 5239 5240 5241 5245 5250 5254 5258 5262 5266 5269 5273 5275 5279 5282 5287 5290 5293 5296 5300 5303 5307 5312 5317 5321 5323 5326 5328 5331 5334 5337 5339 5342 5344 5346 5347 5348 5350 5353 5354 5355 5358 5361 5363 5366 5368 5369 5373 5375 5377 5380 5385 5389
5226 5224 5223 5223 5223 5223 5222 5223 5224 5225 5226 5228 5228 5229 5233 5239 5243 5246 5249 5252 5255 5259 5263 5268 5271 5275 5279 5281 5284 5287 5291 5295 5300 5305 5310 5312 5314 5316 5318 5321 5324 5327 5330 5331 5334 5336 5336 5338 5341 5342 5343 5346 5349 5352 5354 5356 5358 5361 5362 5365 5368 5372 5376
5215 5214 5213 5213 5212 5213 5212 5212 5214 5214 5215 5216 5217 5218 5223 5228 5231 5235 5237 5239 5242 5247 5253 5257 5260 5262 5264 5267 5271 5275 5279 5284 5290 5295 5299 5301 5303 5304 5306 5309 5312 5315 5318 5319 5321 5323 5324 5326 5328 5329 5332 5335 5338 5341 5344 5345 5346 5348 5349 5353 5357 5359 5363
5205 5204 5204 5203 5203 5203 5203 5203 5204 5204 5205 5206 5206 5208 5213 5217 5220 5223 5225 5228 5233 5237 5242 5245 5247 5248 5250 5254 5259 5264 5268 5275 5281 5285 5288 5290 5291 5292 5295 5297 5300 5303 5305 5307 5309 5310 5312 5314 5316 5319 5321 5324 5327 5331 5332 5333 5334 5335 5337 5340 5344 5347 5350
5196 5195 5194 5194 5193 5194 5194 5194 5195 5195 5196 5197 5197 5199 5204 5208 5210 5212 5215 5219 5224 5227 5230 5233 5235 5236 5238 5243 5249 5253 5259 5267 5273 5274 5276 5277 5278 5281 5283 5286 5288 5291 5293 5295 5297 5299 5301 5303 5305 5308 5310 5312 5317 5320 5320 5320 5321 5323 5325 5327 5331 5335 5337
5187 5186 5185 5185 5185 5185 5185 5186 5187 5187 5188 5188 5189 5192 5196 5199 5200 5203 5207 5211 5215 5218 5221 5223 5224 5225 5229 5234 5239 5244 5251 5258 5262 5263 5263 5265 5267 5271 5273 5274 5277 5279 5282 5285 5287 5289 5291 5293 5295 5297 5298 5300 5305 5307 5308 5309 5309 5311 5313 5315 5318 5321 5323
5178 5177 5177 5178 5178 5178 5178 5179 5179 5180 5180 5181 5182 5186 5189 5190 5191 5195 5199 5202 5206 5209 5212 5214 5215 5217 5220 5225 5229 5235 5242 5248 5251 5251 5251 5253 5258 5261 5262 5263 5266 5269 5272 5275 5277 5278 5280 5282 5284 5285 5286 5288 5292 5294 5296 5297 5297 5299 5301 5302 5304 5307 5310
5171 5170 5171 5171 5172 5171 5171 5172 5173 5173 5174 5176 5178 5181 5183 5183 5185 5188 5191 5194 5198 5202 5204 5207 5209 5210 5212 5216 5221 5226 5233 5239 5240 5239 5241 5245 5249 5251 5251 5253 5256 5259 5261 5264 5266 5268 5270 5271 5273 5274 5275 5277 5279 5281 5283 5285 5285 5287 5289 5290 5291 5293 5296
5165 5165 5165 5166 5166 5166 5165 5166 5167 5168 5169 5171 5174 5176 5177 5178 5180 5183 5186 5189 5192 5196 5198 5200 5202 5203 5206 5209 5214 5218 5224 5229 5230 5230 5233 5238 5240 5241 5242 5245 5247 5249 5251 5253 5255 5257 5259 5261 5263 5264 5265 5266 5268 5269 5271 5272 5274 5275 5276 5277 5278 5279 5280
5161 5161 5161 5161 5161 5161 5161 5162 5164 5165 5166 5168 5170 5172 5173 5174 5177 5179 5182 5185 5188 5191 5193 5195 5197 5199 5201 5205 5208 5211 5215 5220 5222 5223 5226 5230 5232 5233 5235 5237 5239 5240 5242 5243 5245 5248 5249 5251 5252 5254 5255 5256 5257 5258 5259 5260 5261 5263 5263 5264 5265 5265 5266
5157 5157 5157 5158 5158 5158 5158 5160 5161 5162 5163 5166 5168 5169 5170 5172 5174 5177 5180 5182 5184 5186 5188 5191 5193 5195 5197 5200 5203 5206 5209 5212 5215 5217 5220 5222 5224 5226 5228 5229 5231 5233 5234 5235 5237 5238 5240 5241 5242 5243 5244 5245 5246 5247 5247 5248 5249 5250 5250 5251 5251 5252 5252
5155 5155 5155 5155 5155 5156 5157 5158 5159 5160 5162 5164 5166 5166 5168 5170 5173 5175 5177 5178 5180 5183 5185 5187 5189 5191 5194 5196 5198 5201 5203 5206 5209 5211 5213 5215 5217 5219 5221 5222 5224 5225 5226 5228 5229 5229 5230 5231 5232 5233 5234 5234 5235 5236 5236 5236 5237 5237 5238 5238 5238 5238 5238
5153 5153 5153 5154 5154 5155 5156 5156 5158 5159 5160 5162 5164 5165 5166 5169 5171 5172 5174 5176 5178 5180 5182 5184 5186 5188 5190 5192 5194 5197 5199 5201 5203 5205 5207 5209 5211 5213 5214 5216 5217 5218 5219 5221 5221 5222 5222 5223 5223 5224 5224 5225 5225 5226 5226 5226 5225 5226 5226 5225 5225 5224 5223
5152 5152 5152 5153 5153 5154 5155 5155 5157 5158 5159 5161 5162 5163 5165 5167 5168 5170 5172 5173 5175 5177 5179 5181 5182 5184 5186 5188 5190 5192 5194 5196 5198 5200 5202 5204 5205 5207 5208 5209 5211 5212 5213 5214 5214 5214 5215 5215 5215 5216 5216 5216 5217 5216 5216 5216 5215 5215 5215 5214 5213 5212 5210
5151 5151 5152 5152 5153 5153 5154 5155 5156 5157 5158 5160 5161 5162 5164 5165 5166 5168 5169 5171 5173 5174 5176 5178 5179 5181 5183 5185 5186 5188 5190 5192 5193 5195 5197 5198 5200 5201 5202 5203 5204 5205 5206 5207 5207 5207 5208 5208 5208 5208 5208 5208 5208 5208 5207 5206 5205 5205 5204 5204 5203 5201 5198
5151 5151 5152 5152 5153 5153 5154 5155 5155 5157 5158 5159 5160 5162 5162 5163 5165 5166 5167 5169 5170 5172 5173 5175 5177 5178 5180 5181 5183 5184 5186 5187 5189 5190 5192 5193 5194 5196 5197 5197 5198 5199 5199 5200 5200 5200 5200 5200 5200 5200 5199 5199 5198 5198 5197 5196 5196 5194 5193 5192 5191 5190 5187
5151 5152 5152 5153 5153 5153 5154 5155 5155 5156 5157 5158 5160 5161 5162 5162 5163 5165 5166 5167 5168 5170 5171 5172 5174 5175 5177 5178 5179 5181 5182 5183 5185 5186 5187 5188 5189 5190 5191 5192 5192 5193 5193 5193 5193 5193 5193 5192 5192 5191 5190 5189 5189 5188 5187 5186 5185 5183 5182 5180 5179 5177 5174
5152 5152 5153 5153 5153 5154 5154 5155 5155 5156 5156 5157 5159 5160 5161 5161 5162 5163 5164 5165 5166 5168 5169 5170 5171 5172 5174 5175 5176 5177 5178 5180 5181 5182 5183 5184 5184 5185 5186 5186 5186 5186 5186 5186 5186 5185 5185 5184 5183 5182 5181 5180 5179 5177 5176 5175 5173 5172 5170 5168 5166 5164 5161
5153 5153 5154 5154 5154 5154 5154 5155 5155 5156 5156 5157 5158 5159 5160 5160 5161 5162 5163 5163 5165 5166 5167 5168 5169 5170 5171 5172 5173 5174 5175 5176 5177 5177 5178 5178 5179 5179 5179 5180 5179 5179 5179 5179 5178 5178 5177 5175 5175 5173 5172 5170 5169 5167 5166 5164 5162 5161 5159 5157 5154 5151 5148
5154 5154 5154 5155 5155 5155 5155 5155 5156 5156 5156 5157 5157 5158 5159 5159 5160 5160 5161 5162 5162 5163 5164 5165 5166 5167 5168 5168 5169 5170 5171 5171 5172 5172 5172 5173 5173 5173 5173 5173 5172 5172 5171 5171 5170 5169 5168 5167 5166 5164 5163 5161 5159 5157 5156 5154 5151 5149 5147 5145 5142 5139 5136
5155 5155 5155 5155 5155 5155 5155 5155 5155 5155 5156 5156 5156 5156 5157 5157 5158 5158 5159 5159 5160 5160 5161 5162 5162 5163 5163 5164 5165 5165 5166 5166 5166 5166 5167 5166 5167 5166 5166 5166 5165 5165 5164 5164 5163 5162 5161 5159 5158 5156 5154 5153 5151 5148 5146 5144 5141 5139 5136 5134 5131 5128 5125
5156 5155 5155 5155 5155 5155 5154 5154 5154 5154 5154 5154 5154 5154 5154 5154 5155 5155 5155 5156 5156 5156 5157 5157 5158 5158 5159 5159 5160 5160 5160 5161 5161 5161 5161 5161 5161 5161 5160 5160 5159 5159 5158 5157 5156 5155 5154 5152 5150 5148 5147 5145 5143 5140 5138 5135 5133 5130 5127 5125 5122 5118 5114
5156 5155 5154 5154 5154 5153 5153 5152 5152 5152 5152 5151 5151 5151 5151 5151 5151 5151 5151 5152 5152 5152 5152 5153 5153 5154 5154 5155 5155 5155 5155 5156 5156 5156 5156 5156 5156 5155 5155 5154 5154 5153 5152 5151 5150 5149 5147 5146 5144 5142 5140 5138 5136 5133 5131 5128 5125 5123 5120 5116 5113 5110 5105
5156 5155 5154 5153 5152 5152 5151 5151 5150 5149 5149 5148 5148 5148 5148 5147 5147 5147 5147 5147 5148 5148 5148 5149 5149 5150 5150 5150 5151 5151 5151 5151 5152 5152 5152 5152 5151 5151 5151 5150 5149 5148 5147 5146 5145 5143 5142 5140 5138 5136 5134 5132 5130 5127 5125 5122 5119 5116 5113 5109 5106 5102 5098
5155 5154 5153 5152 5151 5150 5149 5148 5147 5147 5146 5145 5145 5144 5144 5144 5144 5143 5144 5144 5144 5144 5145 5145 5146 5146 5147 5147 5148 5148 5148 5148 5149 5149 5149 5148 5148 5148 5147 5146 5145 5144 5143 5142 5140 5138 5137 5135 5133 5131 5129 5127 5125 5122 5120 5117 5113 5110 5106 5103 5099 5095 5090